Total_Precipitation_Accumulation
0.00 0.00 0.00 0.00 0.00 0.01 0.03 0.11 0.32 0.50 0.39 0.32 0.30 0.33 0.22 0.24 0.20 0.10 0.05 0.06 0.06 0.06 0.05 0.03 0.05 0.05 0.00 0.00 0.00 0.00 0.00 0.00
0.00 0.00 0.00 0.00 0.00 0.01 0.01 0.02 0.08 0.14 0.19 0.21 0.18 0.19 0.10 0.13 0.11 0.10 0.06 0.05 0.04 0.07 0.09 0.08 0.10 0.05 0.02 0.00 0.01 0.03 0.01 0.00
0.00 0.00 0.00 0.00 0.00 0.00 0.01 0.01 0.01 0.01 0.03 0.04 0.07 0.10 0.10 0.06 0.08 0.08 0.09 0.08 0.05 0.08 0.09 0.05 0.05 0.05 0.05 0.03 0.04 0.03 0.05 0.05
0.00 0.00 0.00 0.00 0.00 0.00 0.00 0.01 0.00 0.01 0.01 0.03 0.05 0.12 0.22 0.14 0.12 0.12 0.13 0.05 0.05 0.03 0.11 0.09 0.08 0.05 0.05 0.06 0.06 0.05 0.10 0.06
0.00 0.00 0.00 0.00 0.00 0.00 0.00 0.00 0.01 0.00 0.00 0.02 0.01 0.02 0.08 0.08 0.05 0.07 0.15 0.10 0.04 0.02 0.02 0.04 0.05 0.05 0.08 0.07 0.06 0.04 0.16 0.22
0.00 0.00 0.00 0.00 0.00 0.00 0.00 0.00 0.00 0.00 0.00 0.01 0.01 0.00 0.00 0.02 0.06 0.10 0.17 0.21 0.06 0.03 0.03 0.08 0.05 0.03 0.13 0.18 0.11 0.08 0.14 0.23
0.00 0.00 0.00 0.00 0.00 0.00 0.00 0.00 0.00 0.00 0.00 0.00 0.02 0.06 0.02 0.01 0.02 0.03 0.07 0.16 0.10 0.05 0.04 0.04 0.09 0.10 0.17 0.22 0.26 0.25 0.30 0.30
0.00 0.00 0.00 0.00 0.00 0.00 0.00 0.00 0.00 0.00 0.00 0.00 0.00 0.06 0.08 0.09 0.03 0.01 0.08 0.05 0.03 0.05 0.13 0.10 0.09 0.21 0.25 0.31 0.32 0.34 0.40 0.48
0.00 0.00 0.00 0.00 0.00 0.00 0.00 0.00 0.00 0.00 0.00 0.09 0.08 0.06 0.16 0.27 0.19 0.08 0.18 0.09 0.06 0.09 0.18 0.34 0.28 0.26 0.27 0.33 0.46 0.64 0.73 0.67
0.00 0.00 0.00 0.00 0.00 0.00 0.00 0.01 0.00 0.00 0.00 0.04 0.02 0.15 0.46 0.23 0.23 0.27 0.28 0.27 0.28 0.24 0.31 0.41 0.42 0.38 0.51 0.57 0.53 0.38 0.28 0.22
0.00 0.00 0.00 0.00 0.00 0.00 0.00 0.07 0.20 0.18 0.05 0.01 0.03 0.06 0.13 0.21 0.15 0.18 0.36 0.47 0.38 0.46 0.46 0.47 0.41 0.30 0.31 0.36 0.31 0.21 0.20 0.23
0.00 0.00 0.00 0.00 0.00 0.00 0.00 0.00 0.16 0.36 0.58 0.45 0.19 0.23 0.18 0.34 0.36 0.51 0.44 0.46 0.58 0.64 0.45 0.34 0.28 0.41 0.44 0.29 0.25 0.26 0.27 0.27
0.00 0.00 0.00 0.00 0.00 0.00 0.00 0.00 0.10 0.38 1.20 1.25 0.65 0.69 0.57 0.57 0.64 0.64 0.71 0.71 0.67 0.53 0.33 0.22 0.21 0.22 0.33 0.46 0.46 0.41 0.37 0.36
0.00 0.00 0.00 0.00 0.01 0.00 0.00 0.09 0.25 0.75 1.02 1.01 0.77 0.88 1.02 0.79 0.64 0.42 0.23 0.25 0.31 0.26 0.27 0.19 0.16 0.15 0.20 0.23 0.24 0.28 0.31 0.36
0.00 0.00 0.00 0.00 0.00 0.01 0.05 0.21 0.30 0.58 0.40 0.45 0.37 0.35 0.50 0.21 0.24 0.20 0.16 0.11 0.13 0.16 0.12 0.11 0.10 0.11 0.11 0.11 0.15 0.17 0.20 0.21
0.00 0.00 0.00 0.00 0.00 0.00 0.02 0.04 0.11 0.26 0.26 0.27 0.20 0.17 0.22 0.15 0.18 0.18 0.12 0.10 0.11 0.15 0.11 0.08 0.07 0.08 0.10 0.12 0.12 0.12 0.13 0.16
0.00 0.00 0.00 0.00 0.00 0.00 0.03 0.05 0.13 0.10 0.08 0.12 0.08 0.10 0.15 0.14 0.16 0.15 0.13 0.14 0.19 0.19 0.19 0.17 0.13 0.14 0.25 0.18 0.10 0.05 0.04 0.05
0.00 0.00 0.01 0.01 0.03 0.06 0.02 0.02 0.04 0.04 0.07 0.09 0.04 0.04 0.12 0.12 0.11 0.13 0.14 0.15 0.20 0.21 0.19 0.19 0.15 0.12 0.21 0.19 0.15 0.04 0.04 0.04
0.00 0.00 0.02 0.08 0.10 0.03 0.02 0.01 0.01 0.02 0.03 0.04 0.06 0.05 0.10 0.12 0.12 0.10 0.13 0.13 0.13 0.15 0.14 0.13 0.13 0.14 0.18 0.12 0.13 0.04 0.05 0.06